Location: Bismarck
(46.7731°N, 100.8200°W)
Time: 11:19:08
(UTC-05:00)

ISS - Visible Passes

Search period start: 29 May 2015 00:00
Search period end: 08 June 2015 00:00
Orbit: 399 x 404 km, 51.6° (Epoch: 29 May)

Date Brightness Start Highest point End Pass type
(mag) Time Alt. Az. Time Alt. Az. Time Alt. Az.
29 May -2.5 01:15:17 46° NE 01:15:17 46° NE 01:17:44 10° ENE visible
29 May -1.6 02:48:12 10° WNW 02:51:13 33° N 02:54:14 10° ENE visible
29 May -2.2 04:24:53 10° WNW 04:28:04 47° NNE 04:31:14 10° E visible
30 May -2.2 00:22:31 33° ENE 00:22:31 33° ENE 00:24:28 10° ENE visible
30 May -1.8 01:54:57 11° W 01:57:49 37° N 02:00:54 10° ENE visible
30 May -1.8 03:31:37 10° WNW 03:34:41 37° N 03:37:46 10° E visible
30 May -3.4 05:08:02 10° WNW 05:11:17 71° SSW 05:14:33 10° SE visible
30 May -3.0 23:24:57 10° SW 23:28:01 41° SE 23:31:07 10° ENE visible
31 May -2.3 01:01:17 10° W 01:04:26 46° NNW 01:07:36 10° ENE visible
31 May -1.5 02:38:16 10° WNW 02:41:17 33° N 02:44:19 10° ENE visible
31 May -3.1 04:14:45 10° WNW 04:18:02 73° NNE 04:21:17 10° ESE visible
31 May -2.2 22:32:13 10° SSW 22:34:53 24° SE 22:37:36 10° E visible
01 Jun -3.0 00:07:52 10° WSW 00:11:06 66° NNW 00:14:21 10° ENE visible
01 Jun -1.5 01:44:51 10° WNW 01:47:52 33° N 01:50:52 10° ENE visible
01 Jun -2.4 03:21:30 10° WNW 03:24:41 50° NNE 03:27:53 10° E visible
01 Jun -2.8 04:58:01 10° WNW 05:01:03 36° SW 05:04:05 10° SSE visible
01 Jun -3.5 23:14:33 10° WSW 23:17:48 81° SSE 23:21:04 10° ENE visible
02 Jun -1.7 00:51:23 10° WNW 00:54:25 36° N 00:57:30 10° ENE visible
02 Jun -1.9 02:28:12 10° WNW 02:31:18 39° NNE 02:34:24 10° E visible
02 Jun -3.4 04:04:38 10° WNW 04:07:51 63° SSW 04:11:05 10° SE visible
02 Jun -3.1 22:21:26 10° SW 22:24:33 47° SSE 22:27:43 10° ENE visible
02 Jun -2.1 23:57:52 10° W 00:01:01 43° NNW 00:04:09 10° ENE visible
03 Jun -1.6 01:34:51 10° WNW 01:37:52 34° N 01:40:54 10° ENE visible
03 Jun -3.3 03:11:18 10° WNW 03:14:34 81° NNE 03:17:51 10° ESE visible
03 Jun -1.9 04:48:18 10° W 04:50:41 19° SW 04:53:01 10° S visible
03 Jun -2.7 23:04:25 10° WSW 23:07:38 60° NNW 23:10:52 10° ENE visible
04 Jun -1.5 00:41:25 10° WNW 00:44:25 33° N 00:47:25 10° ENE visible
04 Jun -2.6 02:18:00 10° WNW 02:21:14 54° NNE 02:24:26 10° E visible
04 Jun -2.6 03:54:35 10° WNW 03:57:33 32° SW 03:57:40 31° SSW visible
04 Jun -3.3 22:11:02 10° WSW 22:14:17 90° SSE 22:17:33 10° ENE visible
04 Jun -1.6 23:47:55 10° WNW 23:50:57 35° N 23:54:00 10° ENE visible
05 Jun -2.0 01:24:42 10° WNW 01:27:49 41° NNE 01:30:30 13° E visible
05 Jun -2.1 03:01:07 10° WNW 03:02:59 30° W 03:02:59 30° W visible
05 Jun -1.9 22:54:23 10° W 22:57:30 41° NNW 23:00:37 10° ENE visible
06 Jun -1.7 00:31:20 10° WNW 00:34:21 35° N 00:37:24 10° ENE visible
06 Jun -2.9 02:07:46 10° WNW 02:10:25 56° WNW 02:10:25 56° WNW visible
06 Jun -1.5 23:37:53 10° WNW 23:40:52 33° N 23:43:53 10° ENE visible
07 Jun -2.8 01:14:26 10° WNW 01:17:40 59° NNE 01:18:17 47° ENE visible
07 Jun -1.6 22:44:22 10° WNW 22:47:22 34° N 22:50:24 10° ENE visible
